Погода в Оливе

Испания     38°55′13″N   0°07′04″E
темп.,
°C
ветер,
м/с
пор.,
м/с
влажн.,
%
обл.,
%
осадки,
мм/ч
давл.,
гПа
погр.,
м
17 апреля, сб
сб1723:00+11зюз33705 0.4 1019360
02:00+11сз44755 0.4 1019409
05:00+11сз56675 0.0 1018616
08:00+12с566517 0.0 1018913
11:00+11с556056 0.1 1019673
14:00+12ссв445460 0.1 1018871
17:00+12вюв44556 0.0 1017481
20:00+13юв55581 0.0 1017466
18 апреля, вс
вс1823:00+13ю44650 0.0 1018268
02:00+13з226098 0.0 1019277
05:00+12сз44660 0.0 1018435
08:00+12ссз546169 0.0 1019516
11:00+12сз44538 0.0 1021465
14:00+12всв32510 0.0 1021236
17:00+13юв44590 0.0 1020284
20:00+14ююв77650 0.0 1019307
19 апреля, пн
пн1923:00+14ююв7769100 0.0 1020243
02:00+14з3363100 0.0 1019192
05:00+13св1163100 0.0 1018148
08:00+14ююз2258100 0.0 1017139
11:00+16св1155100 0.0 101756
14:00+17в4457100 0.0 1015130
17:00+19вюв3361100 0.0 101281
20:00+19з685798 0.0 101164
20 апреля, вт
вт2023:00+15ссз6783100 0.0 1014267
02:00+15сз447699 0.0 1013158
05:00+15сз3378100 0.0 1013192
08:00+15сз337794 0.2 1013253
11:00+15с4479100 0.1 1014447
14:00+15св3376100 0.3 1013453
17:00+15всв657983 0.4 1012660
20:00+14ссв668379 2.8 1015612
21 апреля, ср
ср2123:00+14с448424 1.6 1016544
02:00+14ссз448281 1.7 1017528
05:00+14с347738 0.1 1016593
08:00+14ссв4470100 0.1 1017872
11:00+14ссв447728 0.1 1018596
14:00+14св33735 0.2 1018554
17:00+15всв33691 0.0 1018534
20:00+15всв1267100 0.0 1018439